Regional Weather Roundup
Issued by NWS

Home | Current Version | Previous Version | Graphics & Text | Print | Product List | Glossary On
Versions: 1 2 3 4 5 6 7 8 9 10 11 12 13 14 15 16 17 18 19 20 21 22 23 24 25 26 27 28 29 30 31 32 33 34 35 36 37 38 39 40 41 42 43 44 45 46 47 48 49 50
000
ASUS43 KOAX 211202
RWRNE

WEATHER ROUNDUP FOR NEBRASKA
NATIONAL WEATHER SERVICE OMAHA NE
600 AM CST TUE FEB 21 2017

NOTES: SATELLITE DATA IS BEING USED TO AUGMENT CLOUD COVER ABOVE
       12000 FEET.
       "FAIR" INDICATES FEW OR NO CLOUDS BELOW 12,000 FEET WITH NO
       SIGNIFICANT WEATHER AND/OR OBSTRUCTIONS TO VISIBILITY.

  * THESE STATIONS DO NOT REPORT WEATHER SUCH AS RAIN...SNOW OR FOG.

NEZ001>004-019>022-054>056-211300-
NEBRASKA PANHANDLE

CITY           SKY/WX    TMP DP  RH WIND       PRES   REMARKS
SCOTTSBLUFF    CLOUDY    31  21  66 CALM      29.93F
6HR MIN TEMP:  29; 6HR MAX TEMP:  47;

ALLIANCE       CLEAR     31  22  69 W8        29.91S WCI  23
6HR MIN TEMP:  27; 6HR MAX TEMP:  39;

CHADRON        CLEAR     38  26  62 NE7       29.86S WCI  33
6HR MIN TEMP:  34; 6HR MAX TEMP:  51;

KIMBALL        CLOUDY    39  25  56 W15       29.99S WCI  31
SIDNEY         CLEAR     37  17  44 NW14      29.98R WCI  28
6HR MIN TEMP:  28; 6HR MAX TEMP:  42;

$$

NEZ057>060-069>072-079>082-211300-
SOUTHWEST NEBRASKA

CITY           SKY/WX    TMP DP  RH WIND       PRES   REMARKS
NORTH PLATTE   CLOUDY    25  20  81 NW6       29.97R WCI  18
6HR MIN TEMP:  24; 6HR MAX TEMP:  34;

IMPERIAL       CLOUDY    35  17  47 SW6       29.97R WCI  30
6HR MIN TEMP:  33; 6HR MAX TEMP:  40;

LEXINGTON      CLOUDY    39  24  55 SW7       29.97S WCI  34
MCCOOK         CLOUDY    30  20  66 CALM      29.98S
6HR MIN TEMP:  27; 6HR MAX TEMP:  37;

OGALLALA       CLOUDY    28  21  74 CALM      29.96R
$$

NEZ005>010-023>029-035>040-094-211300-
NORTH CENTRAL NEBRASKA

CITY           SKY/WX    TMP DP  RH WIND       PRES   REMARKS
VALENTINE      CLEAR     41  22  46 W7        29.85F
6HR MIN TEMP:  36; 6HR MAX TEMP:  46;

AINSWORTH      CLEAR     42  24  49 SW12      29.85S
BROKEN BOW     CLEAR     37  25  61 SW5       29.93S WCI  33
6HR MIN TEMP:  29; 6HR MAX TEMP:  41;

O`NEILL        CLEAR     40  31  70 SW10      29.89S WCI  34
ORD            CLEAR     32  26  78 S7        29.93S WCI  26
6HR MIN TEMP:  28; 6HR MAX TEMP:  34;

THEDFORD       PTCLDY    46  21  36 SW10      29.91S
$$

NEZ041-046>049-061>064-073>077-083>087-211300-
SOUTH CENTRAL NEBRASKA

CITY           SKY/WX    TMP DP  RH WIND       PRES   REMARKS
GRAND ISLAND   CLEAR     41  35  79 S7        29.97F
6HR MIN TEMP:  35; 6HR MAX TEMP:  42;

AURORA         CLEAR     36  33  87 SW7       29.99R WCI  31
HASTINGS       CLEAR     40  31  70 S6        30.00R
6HR MIN TEMP:  35; 6HR MAX TEMP:  41;

HEBRON         CLOUDY    30  28  95 CALM      30.01S
HOLDREGE       CLOUDY    36  25  64 SW8       29.99R WCI  29
KEARNEY *      CLEAR     34  27  75 SW8       29.98S WCI  27
YORK           CLEAR     36  32  87 SW7       29.99R WCI  30
$$

NEZ011>018-030>034-042>045-211300-
NORTHEAST NEBRASKA

CITY           SKY/WX    TMP DP  RH WIND       PRES   REMARKS
NORFOLK        CLEAR     39  32  76 S5        29.93F
6HR MIN TEMP:  29; 6HR MAX TEMP:  39;

ALBION         CLEAR     39  31  75 SE7       29.95S WCI  34
BLAIR          CLEAR     37  35  96 SW3       29.97R FOG
FREMONT        CLEAR     32  32 100 NW5       29.99R WCI  27
TEKAMAH        PTCLDY    30  29  96 S5        29.97R WCI  25
6HR MIN TEMP:  30; 6HR MAX TEMP:  36;

WAYNE          CLEAR     36  33  90 S7        29.93S WCI  30
$$

NEZ050>053-065>068-078-088>093-211300-
SOUTHEAST NEBRASKA

CITY           SKY/WX    TMP DP  RH WIND       PRES   REMARKS
LINCOLN        CLEAR     29  27  92 CALM      30.00R
6HR MIN TEMP:  26; 6HR MAX TEMP:  40;

OMAHA EPPLEY   FOG       36  32  85 CALM      29.97R VSB 1/4
6HR MIN TEMP:  33; 6HR MAX TEMP:  40;

BEATRICE       CLOUDY    31  31  99 CALM      30.00S
FALLS CITY     CLEAR     36  36 100 W3        29.98R
6HR MIN TEMP:  35; 6HR MAX TEMP:  47;

NEBRASKA CITY  PTCLDY    39  38  96 S5        29.97S
PLATTSMOUTH    CLEAR     38  36  90 S5        29.97R WCI  35
$$

NEZ044-045-051>053-067-211300-
OMAHA AREA

CITY           SKY/WX    TMP DP  RH WIND       PRES   REMARKS
OMAHA EPPLEY   FOG       36  32  85 CALM      29.97R VSB 1/4
6HR MIN TEMP:  33; 6HR MAX TEMP:  40;

BLAIR          CLEAR     37  35  96 SW3       29.97R FOG
FREMONT        CLEAR     32  32 100 NW5       29.99R WCI  27
MILLARD        CLEAR     34  33  96 CALM      29.98R FOG
PLATTSMOUTH    CLEAR     38  36  90 S5        29.97R WCI  35
WAHOO          FAIR      29  28  96 CALM      29.98R
$$




USA.gov is the U.S. government's official web portal to all federal, state and local government web resources and services.